Location: Roussillon
(43.9008°N, 5.2947°E)
Time: 21:50:06
(UTC+00:00)

CZ-2D R/B - Pass Details

Date: 07 June 2020
Orbit: 791 x 846 km, 98.7° (Epoch: 07 July)

Event Time Altitude Azimuth Distance (km) Brightness Sun altitude
Rises 00:25:56 0° 24° (NNE) 3,304 6.7 -22.4°
Reaches altitude 10° 00:28:36 10° 36° (NE) 2,367 5.5 -22.3°
Maximum altitude 00:33:03 28° 95° (E) 1,452 3.5 -22.1°
Enters shadow 00:35:01 22° 130° (SE) 1,669 3.5 -22.0°
